Погода в Рукеле

Россия / Республика Дагестан     41°59′09″N   48°13′42″E
темп.,
°C
ветер,
м/с
пор.,
м/с
влажн.,
%
обл.,
%
осадки,
мм/ч
давл.,
гПа
погр.,
м
26 июня, вс
вс2600:00+21зсз1177100 0.0 100712
03:00+20ссз2278100 0.0 100821
06:00+22юз1169100 0.0 1008123
09:00+26всв215525 0.0 1006640
12:00+27св5350100 0.0 1004620
15:00+25с455217 0.0 1004419
18:00+25ссз355886 0.6 1004211
21:00+23з2267100 0.9 100515
27 июня, пн
пн2700:00+23зсз237084 0.1 100514
03:00+22з22700 0.1 100513
06:00+23сз23750 0.0 1007164
09:00+28с35490 0.0 1006778
12:00+30с88430 0.0 10061056
15:00+31с911380 0.0 10051323
18:00+27ссз813600 0.0 1005546
21:00+24ссз69700 0.0 1006219
28 июня, вт
вт2800:00+23сз46700 0.0 1006120
03:00+22ссз710671 0.0 1006303
06:00+24ссз813570 0.0 1006669
09:00+27ссз1012430 0.0 10061024
12:00+28с1215440 0.0 10071109
15:00+26с1115560 0.0 1008868
18:00+24ссз915570 0.0 1010791
21:00+22сз612520 0.0 1012384
29 июня, ср
ср2900:00+22зсз46470 0.0 101296
03:00+21з33470 0.0 101120
06:00+25зсз25420 0.0 1012317
09:00+27с55310 0.0 1013856
12:00+28ссв55320 0.0 1013917
15:00+27ссв55460 0.0 1012732
18:00+24с44600 0.0 1013481
21:00+21ссз45860 0.0 1015125
30 июня, чт
чт3000:00+19ссз239112 0.1 101595
03:00+19ссз338785 0.1 1015144
06:00+20ссз227884 0.0 1015541
09:00+23ссв32638 0.0 1014799
12:00+23св435214 0.0 1014820
15:00+23св444676 0.0 1014971
18:00+21ссв444756 0.0 1015544
21:00+19сз345719 0.0 1016119